Volver al catálogo

PSLV DEB

ActivoSSO
NORAD 28853·DEBRIS·🇮🇳 India

Lanzado Oct 22, 2001 desde Satish Dhawan Space Centre

Loading…

Próximos Pases (próximas 24 horas)

TLE

ActualizadoSource: Space-Track

Época: Sep 11, 2026, 10:46 UTC

1 28853U 01049PF  26254.44902228  .00003023  00000-0  21659-3 0  9994
2 28853  97.9906 323.7516 0024772 323.6718  36.2825 15.04973148718562

Sigue PSLV DEB en tiempo real con AllMySat

Download on the App Store